CST,Max TemperatureF,Mean TemperatureF,Min TemperatureF,Max Dew PointF,MeanDew PointF,Min DewpointF,Max Humidity, Mean Humidity, Min Humidity, Max Sea Level PressureIn, Mean Sea Level PressureIn, Min Sea Level PressureIn, Max VisibilityMiles, Mean VisibilityMiles, Min VisibilityMiles, Max Wind SpeedMPH, Mean Wind SpeedMPH, Max Gust SpeedMPH,PrecipitationIn, CloudCover, Events, WindDirDegrees
2011-11-1,71,55,39,43,37,31,93,58,23,30.33,30.27,30.24,10,10,10,12,2,16,0.00,0,,63
2011-11-2,70,57,44,38,35,30,76,50,23,30.36,30.27,30.18,10,10,10,14,4,20,0.00,0,,117
2011-11-3,62,54,46,58,47,37,93,72,51,30.17,30.01,29.93,10,8,1,23,11,31,0.21,6,Rain,238
2011-11-4,65,53,41,46,42,38,92,70,48,30.17,30.08,30.00,10,10,6,20,9,28,T,4,,342
2011-11-5,68,54,40,44,40,30,100,69,38,30.28,30.21,30.16,10,9,5,15,6,22,0.00,0,,92
2011-11-6,69,57,45,49,43,33,71,60,48,30.40,30.32,30.27,10,10,10,14,7,21,0.00,1,,106
2011-11-7,75,65,54,51,49,46,77,57,36,30.35,30.28,30.19,10,10,10,13,5,18,0.00,2,,122
2011-11-8,77,68,59,52,50,49,67,54,40,30.22,30.15,30.08,10,10,10,17,7,23,0.00,3,,135
2011-11-9,70,58,45,63,55,42,100,82,63,30.12,30.06,30.01,10,7,2,17,6,23,0.11,5,Rain,258
2011-11-10,58,47,35,41,29,20,89,57,25,30.22,30.17,30.12,10,10,10,21,9,28,0.00,0,,334
2011-11-11,61,45,29,33,28,21,92,59,25,30.29,30.23,30.19,10,10,10,10,2,16,0.00,0,,223
2011-11-12,63,49,34,36,31,29,82,56,30,30.31,30.24,30.17,10,10,10,17,5,21,0.00,0,,175
2011-11-13,76,66,56,59,49,30,84,59,33,30.18,30.10,30.04,10,10,10,22,11,29,0.00,2,,178
2011-11-14,74,69,64,66,63,58,90,79,68,30.09,30.02,29.97,10,10,2,23,11,26,0.02,8,Rain,187
2011-11-15,71,69,66,68,66,64,97,91,84,29.99,29.94,29.87,10,5,1,15,7,20,0.90,8,Rain,185
2011-11-16,79,66,52,68,62,48,97,79,60,30.01,29.84,29.75,10,8,0,24,11,30,0.28,7,Fog-Rain-Thunderstorm,225
2011-11-17,55,45,35,46,29,20,80,53,26,30.38,30.25,30.04,10,10,10,23,10,28,T,2,,349
2011-11-18,60,46,31,29,24,19,66,47,28,30.43,30.34,30.27,10,10,10,17,7,24,0.00,0,,108
2011-11-19,69,60,50,54,46,25,78,55,32,30.31,30.25,30.19,10,10,10,17,8,25,T,7,,137
2011-11-20,69,65,60,63,60,54,93,83,72,30.30,30.26,30.23,10,9,4,13,4,15,T,6,,163
2011-11-21,74,66,58,64,62,57,97,83,68,30.29,30.22,30.10,10,9,2,13,3,15,0.00,4,,190
2011-11-22,73,67,60,67,61,57,100,87,73,30.12,30.01,29.91,10,7,0,23,7,29,1.64,6,Rain-Thunderstorm,215
2011-11-23,62,53,43,61,49,41,97,76,55,30.31,30.16,30.02,10,9,3,18,9,25,T,6,,332
2011-11-24,66,52,37,43,40,34,100,66,31,30.39,30.34,30.30,10,9,5,8,2,16,0.00,0,,68
2011-11-25,69,54,38,47,42,34,93,66,39,30.36,30.28,30.19,10,10,9,20,4,28,0.00,0,,150
2011-11-26,74,66,57,55,50,47,75,61,46,30.23,30.12,29.99,10,10,10,20,8,29,0.01,4,Rain,148
2011-11-27,66,57,47,63,57,46,100,92,84,29.97,29.92,29.87,10,4,1,22,8,30,2.52,8,Rain,251
2011-11-28,47,42,37,45,39,34,100,96,92,29.89,29.84,29.81,10,6,1,17,11,22,0.61,8,Rain,266
2011-11-29,41,39,36,36,35,34,92,86,79,30.12,29.95,29.84,10,8,6,18,11,22,0.07,8,Rain,254
2011-11-30,49,40,30,36,33,28,96,73,50,30.24,30.16,30.10,10,9,6,12,4,16,0.00,5,,309